Location: Newark
(34.6283°N, 36.0776°E)
Time: 04:10:01
(UTC+00:00)

Vanguard 1 - All Passes

Search period start: 15 October 2019 00:00
Search period end: 25 October 2019 00:00
Orbit: 653 x 3830 km, 34.3° (Epoch: 14 October)

Date Brightness Start Highest point End Pass type
(mag) Time Alt. Az. Time Alt. Az. Time Alt. Az.
15 Oct - 01:52:54 10° W 02:09:05 25° SW 02:23:58 10° S visible
15 Oct - 14:26:15 10° SSE 14:30:31 16° SE 14:36:08 10° E daylight
15 Oct - 16:41:22 10° SW 16:49:54 60° SSE 17:05:57 10° ENE visible
15 Oct - 19:00:59 10° W 19:13:15 89° S 19:35:04 10° E visible
15 Oct - 21:22:33 10° W 21:39:29 79° SSW 22:03:21 10° ESE visible
15 Oct - 23:46:16 10° WNW 00:05:50 49° SW 00:26:46 10° SSE visible
16 Oct - 02:17:24 10° W 02:29:50 17° SW 02:41:29 10° SSW visible
16 Oct - 14:45:12 10° S 14:50:47 24° SE 14:59:12 10° E daylight
16 Oct - 17:02:01 10° WSW 17:10:54 71° SSE 17:27:52 10° ENE visible
16 Oct - 19:22:05 10° W 19:34:51 89° S 19:57:06 10° E visible
16 Oct - 21:43:49 10° WNW 22:01:06 72° SSW 22:24:43 10° ESE visible
17 Oct - 00:08:11 10° W 00:26:59 40° SW 00:46:44 10° SSE visible
17 Oct - 02:46:31 10° WSW 02:50:37 11° SW 02:54:38 10° SW visible
17 Oct - 15:04:56 10° SSW 15:11:11 34° SE 15:21:32 10° E visible
17 Oct - 17:22:51 10° WSW 17:32:04 80° SSE 17:49:49 10° E visible
17 Oct - 19:43:12 10° W 19:56:28 87° S 20:19:04 10° ESE visible
17 Oct - 22:05:07 10° WNW 22:22:37 64° SSW 22:45:47 10° SE visible
18 Oct - 00:30:31 10° W 00:48:01 32° SW 01:06:11 10° S visible
18 Oct - 15:25:07 10° SW 15:31:45 45° SE 15:43:31 10° ENE visible
18 Oct - 17:43:46 10° WSW 17:53:22 86° S 18:11:48 10° E visible
18 Oct - 20:04:20 10° W 20:18:04 83° SSW 20:40:55 10° ESE visible
18 Oct - 22:26:31 10° WNW 22:44:02 56° SSW 23:06:33 10° SE visible
19 Oct - 00:53:32 10° W 01:09:01 24° SW 01:24:54 10° S visible
19 Oct - 13:31:16 10° SSE 13:33:35 12° SE 13:36:16 10° ESE daylight
19 Oct - 15:45:34 10° SW 15:52:30 57° SSE 16:05:22 10° ENE visible
19 Oct - 18:04:46 10° W 18:14:46 89° S 18:33:49 10° E visible
19 Oct - 20:25:28 10° W 20:39:38 77° SSW 21:02:35 10° ESE visible
19 Oct - 22:48:05 10° W 23:05:22 47° SW 23:26:57 10° SSE visible
20 Oct - 01:17:56 10° W 01:30:01 17° SW 01:42:18 10° SSW visible
20 Oct - 13:49:40 10° S 13:53:53 20° SE 13:59:43 10° E daylight
20 Oct - 16:06:13 10° WSW 16:13:26 69° SSE 16:27:10 10° E visible
20 Oct - 18:25:48 10° W 18:36:12 89° S 18:55:51 10° E visible
20 Oct - 20:46:38 10° W 21:01:08 70° SSW 21:24:01 10° SE visible
20 Oct - 23:09:55 10° W 23:26:39 39° SW 23:46:54 10° SSE visible
21 Oct - 01:47:00 10° WSW 01:51:06 11° SW 01:55:11 10° SW visible
21 Oct - 14:09:19 10° SSW 14:14:19 29° SE 14:21:59 10° E daylight
21 Oct - 16:27:02 10° WSW 16:34:31 79° SSE 16:49:00 10° E visible
21 Oct - 18:46:49 10° W 18:57:40 86° S 19:17:49 10° ESE visible
21 Oct - 21:07:51 10° W 21:22:36 62° SSW 21:45:09 10° SE visible
21 Oct - 23:32:10 10° W 23:47:52 31° SW 00:06:17 10° SSE visible
22 Oct - 14:29:28 10° SW 14:34:53 41° SE 14:43:52 10° E daylight
22 Oct - 16:47:56 10° W 16:55:42 86° S 17:10:53 10° E visible
22 Oct - 19:07:52 10° W 19:19:07 81° SSW 19:39:41 10° ESE visible
22 Oct - 21:29:10 10° W 21:44:01 53° SSW 22:05:55 10° SE visible
22 Oct - 23:55:09 10° W 00:09:04 23° SW 00:24:52 10° S visible
23 Oct - 14:49:56 10° SW 14:55:38 54° SSE 15:05:35 10° E daylight
23 Oct - 17:08:52 10° W 17:16:59 89° S 17:32:48 10° E visible
23 Oct - 19:28:55 10° W 19:40:32 75° SSW 20:01:22 10° ESE visible
23 Oct - 21:50:39 10° W 22:05:24 44° SSW 22:26:18 10° SSE visible
24 Oct - 00:19:37 10° WSW 00:30:18 16° SW 00:41:58 10° SSW visible
24 Oct - 12:54:09 10° S 12:57:17 16° SE 13:01:08 10° E daylight
24 Oct - 15:10:36 10° WSW 15:16:31 68° SSE 15:27:14 10° E visible
24 Oct - 17:29:50 10° W 17:38:17 88° S 17:54:45 10° E visible
24 Oct - 19:50:01 10° W 20:01:56 67° SSW 20:22:48 10° SE visible
24 Oct - 22:12:26 10° W 22:26:46 36° SW 22:46:12 10° SSE visible
